User: anonymous   Login
Location: Palo Alto
(37.4420°N, 122.1420°W)
Time: 17:55:43
(UTC-07:00)
Language:

YUBILEINY - Orbit

View from above orbital plane
View from above orbital plane
View from above satellite
View from above satellite

Ground track
Ground track

The orbit data is extracted from the following two-line orbital elements,

1 32953U 08025A   20297.84851535  .00000037  00000-0  19437-3 0  9993
2 32953  82.5063 198.0627 0019347 130.7412 229.5351 12.43098615563586
Epoch (UTC): 23 October 2020 20:21:51
Eccentricity: 0.0019347
inclination: 82.5063°
perigee height: 1478 km
apogee height: 1509 km
right ascension of ascending node: 198.0627°
argument of perigee: 130.7412°
revolutions per day: 12.43098615
mean anomaly at epoch: 229.5351°
orbit number at epoch: 56358

The dashed part of the orbit path shows where the satellite is in the earth's shadow,  

DLR